When you browse on this site, cookies collect data to enhance your experience and personalize the content and advertising you see.
Visit our Privacy Policy to learn more. By continuing to use the site, you agree to this use of cookies and data.
  • En España
  • Lista de países
  • Para 7 días
  • Temperatura del agua
  • Mapa Satelital
  • El tiempo en el mapa
  • Informadores
  • user-avatar
    Iniciar sesión

    Tiempo cada hora Shumen

    Hoy, 21 Enero, Lunes

    Tiempo Temperatura Precipitaciones Viento Presión Humedad
    00:00 +4°C° 0 mm 2 mps 729 mmHg 95%
    01:00 +2°C° 0 mm 3 mps 729 mmHg 95%
    02:00 +1°C° 0 mm 3 mps 729 mmHg 93%
    03:00 +1°C° 0 mm 3 mps 729 mmHg 92%
    04:00 0°C° 0 mm 4 mps 729 mmHg 90%
    05:00 0°C° 0 mm 4 mps 729 mmHg 89%
    06:00 -1°C° 0 mm 4 mps 729 mmHg 90%
    07:00 -1°C° 0 mm 3 mps 730 mmHg 92%
    08:00 -1°C° 0 mm 3 mps 730 mmHg 93%
    09:00 0°C° 0 mm 3 mps 731 mmHg 87%
    10:00 +1°C° 0 mm 3 mps 731 mmHg 81%
    11:00 +1°C° 0 mm 4 mps 732 mmHg 74%
    12:00 +2°C° 0 mm 3 mps 732 mmHg 73%
    13:00 +2°C° 0 mm 3 mps 732 mmHg 71%
    14:00 +3°C° 0 mm 3 mps 732 mmHg 69%
    15:00 +2°C° 0 mm 3 mps 732 mmHg 71%
    16:00 +2°C° 0 mm 2 mps 732 mmHg 74%
    17:00 +2°C° 0 mm 2 mps 733 mmHg 77%
    18:00 +1°C° 0 mm 2 mps 733 mmHg 79%
    19:00 -1°C° 0 mm 2 mps 733 mmHg 82%
    20:00 -2°C° 0 mm 2 mps 733 mmHg 85%
    21:00 -2°C° 0 mm 2 mps 733 mmHg 85%
    22:00 0°C° 0 mm 1 mps 733 mmHg 86%
    23:00 -1°C° 0 mm 1 mps 733 mmHg 87%

    Mañana, 22 Enero, Martes

    Tiempo Temperatura Precipitaciones Viento Presión Humedad
    00:00 -1°C° 0 mm 1 mps 733 mmHg 86%
    01:00 -3°C° 0 mm 2 mps 733 mmHg 86%
    02:00 -3°C° 0 mm 2 mps 733 mmHg 86%
    03:00 -3°C° 0 mm 2 mps 733 mmHg 86%
    04:00 -2°C° 0 mm 2 mps 733 mmHg 86%
    05:00 -2°C° 0 mm 2 mps 733 mmHg 86%
    06:00 -2°C° 0 mm 2 mps 732 mmHg 87%
    07:00 -2°C° 0 mm 2 mps 732 mmHg 89%
    08:00 -2°C° 0 mm 3 mps 732 mmHg 90%
    09:00 -1°C° 0.1 mm 3 mps 732 mmHg 88%
    10:00 -1°C° 0.1 mm 4 mps 732 mmHg 86%
    11:00 0°C° 0.1 mm 4 mps 732 mmHg 83%
    12:00 0°C° 0.2 mm 4 mps 731 mmHg 84%
    13:00 +1°C° 0.2 mm 4 mps 730 mmHg 84%
    14:00 +1°C° 0.2 mm 4 mps 730 mmHg 84%
    15:00 +1°C° 0 mm 4 mps 729 mmHg 87%
    16:00 +1°C° 0 mm 4 mps 729 mmHg 90%
    17:00 0°C° 0 mm 4 mps 728 mmHg 93%
    18:00 +1°C° 0 mm 4 mps 728 mmHg 94%
    19:00 +1°C° 0 mm 4 mps 727 mmHg 95%
    20:00 +1°C° 0 mm 5 mps 727 mmHg 96%
    21:00 +1°C° 0 mm 5 mps 727 mmHg 95%
    22:00 +1°C° 0 mm 5 mps 726 mmHg 95%
    23:00 +1°C° 0 mm 5 mps 726 mmHg 95%

    Pasado mañana, 23 Enero, Miércoles

    Tiempo Temperatura Precipitaciones Viento Presión Humedad
    00:00 +1°C° 0 mm 5 mps 725 mmHg 95%
    01:00 +1°C° 0 mm 5 mps 724 mmHg 95%
    02:00 +3°C° 0 mm 4 mps 724 mmHg 96%
    03:00 +2°C° 0.4 mm 5 mps 723 mmHg 96%
    04:00 +2°C° 0.4 mm 5 mps 722 mmHg 95%
    05:00 +2°C° 0.4 mm 5 mps 722 mmHg 95%
    06:00 +3°C° 0.1 mm 5 mps 721 mmHg 95%
    07:00 +4°C° 0.1 mm 4 mps 721 mmHg 94%
    08:00 +4°C° 0.1 mm 4 mps 721 mmHg 94%
    09:00 +6°C° 0 mm 4 mps 721 mmHg 88%
    10:00 +7°C° 0 mm 5 mps 721 mmHg 82%
    11:00 +9°C° 0 mm 5 mps 722 mmHg 77%
    12:00 +10°C° 0 mm 5 mps 721 mmHg 72%
    13:00 +11°C° 0 mm 4 mps 721 mmHg 68%
    14:00 +12°C° 0 mm 4 mps 721 mmHg 63%
    15:00 +11°C° 0 mm 3 mps 721 mmHg 67%
    16:00 +10°C° 0 mm 3 mps 721 mmHg 72%
    17:00 +9°C° 0 mm 2 mps 721 mmHg 76%
    18:00 +8°C° 0 mm 2 mps 721 mmHg 79%
    19:00 +8°C° 0 mm 3 mps 721 mmHg 82%
    20:00 +7°C° 0 mm 3 mps 721 mmHg 84%
    21:00 +7°C° 0 mm 3 mps 721 mmHg 87%
    22:00 +6°C° 0 mm 4 mps 721 mmHg 89%
    23:00 +6°C° 0 mm 4 mps 721 mmHg 91%

    24 Enero, Jueves

    Tiempo Temperatura Precipitaciones Viento Presión Humedad
    00:00 +6°C° 0 mm 4 mps 721 mmHg 91%
    01:00 +6°C° 0 mm 4 mps 721 mmHg 91%
    02:00 +7°C° 0 mm 3 mps 721 mmHg 91%
    03:00 +7°C° 0.6 mm 3 mps 721 mmHg 93%
    04:00 +7°C° 0.6 mm 3 mps 721 mmHg 94%
    05:00 +5°C° 0.6 mm 3 mps 720 mmHg 96%
    06:00 +5°C° 0.1 mm 3 mps 720 mmHg 96%
    07:00 +5°C° 0.1 mm 3 mps 720 mmHg 96%
    08:00 +5°C° 0.1 mm 3 mps 720 mmHg 96%
    09:00 +6°C° 0 mm 4 mps 720 mmHg 89%
    10:00 +7°C° 0 mm 5 mps 721 mmHg 83%
    11:00 +8°C° 0 mm 5 mps 721 mmHg 76%
    12:00 +9°C° 0 mm 6 mps 721 mmHg 72%
    13:00 +9°C° 0 mm 7 mps 720 mmHg 68%
    14:00 +10°C° 0 mm 7 mps 720 mmHg 64%
    15:00 +9°C° 0 mm 7 mps 720 mmHg 70%
    16:00 +8°C° 0 mm 6 mps 720 mmHg 75%
    17:00 +7°C° 0 mm 6 mps 720 mmHg 81%
    18:00 +5°C° 0.1 mm 6 mps 721 mmHg 83%
    19:00 +4°C° 0.1 mm 7 mps 721 mmHg 85%
    20:00 +4°C° 0.1 mm 7 mps 721 mmHg 87%
    21:00 +3°C° 0.2 mm 7 mps 722 mmHg 87%
    22:00 +3°C° 0.2 mm 7 mps 722 mmHg 87%
    23:00 +3°C° 0.2 mm 7 mps 722 mmHg 87%

    25 Enero, Viernes

    Tiempo Temperatura Precipitaciones Viento Presión Humedad
    00:00 +2°C° 0.2 mm 7 mps 722 mmHg 87%
    01:00 +2°C° 0.2 mm 7 mps 722 mmHg 87%
    02:00 +2°C° 0.2 mm 7 mps 722 mmHg 87%
    03:00 +2°C° 0.2 mm 7 mps 722 mmHg 88%
    04:00 0°C° 0.2 mm 7 mps 722 mmHg 88%
    05:00 +1°C° 0.2 mm 6 mps 722 mmHg 89%
    06:00 -1°C° 0.4 mm 6 mps 722 mmHg 89%
    07:00 -1°C° 0.4 mm 6 mps 723 mmHg 89%
    08:00 -1°C° 0.4 mm 6 mps 723 mmHg 89%
    09:00 -1°C° 0.2 mm 6 mps 723 mmHg 89%
    10:00 +1°C° 0.2 mm 6 mps 723 mmHg 89%
    11:00 +1°C° 0.2 mm 6 mps 724 mmHg 89%
    12:00 +1°C° 0.2 mm 6 mps 723 mmHg 89%
    13:00 +1°C° 0.2 mm 6 mps 723 mmHg 89%
    14:00 +1°C° 0.2 mm 6 mps 723 mmHg 89%
    15:00 +1°C° 0.6 mm 6 mps 723 mmHg 90%
    16:00 +1°C° 0.6 mm 6 mps 722 mmHg 90%
    17:00 +1°C° 0.6 mm 5 mps 722 mmHg 91%
    18:00 +1°C° 0.3 mm 5 mps 722 mmHg 92%
    19:00 +1°C° 0.3 mm 5 mps 722 mmHg 92%
    20:00 +2°C° 0.3 mm 5 mps 722 mmHg 93%
    21:00 +2°C° 0.3 mm 5 mps 722 mmHg 94%
    22:00 +2°C° 0.3 mm 5 mps 722 mmHg 95%
    23:00 +3°C° 0.3 mm 5 mps 722 mmHg 96%

    26 Enero, Sábado

    Tiempo Temperatura Precipitaciones Viento Presión Humedad
    00:00 +3°C° 1.1 mm 5 mps 721 mmHg 96%
    01:00 +3°C° 1.1 mm 5 mps 721 mmHg 96%
    02:00 +3°C° 1.1 mm 5 mps 721 mmHg 96%
    03:00 +3°C° 1.9 mm 5 mps 721 mmHg 96%
    04:00 +4°C° 1.9 mm 4 mps 721 mmHg 96%
    05:00 +4°C° 1.9 mm 3 mps 720 mmHg 97%
    06:00 +4°C° 0.6 mm 3 mps 721 mmHg 96%
    07:00 +4°C° 0.6 mm 3 mps 721 mmHg 95%
    08:00 +3°C° 0.6 mm 3 mps 721 mmHg 95%
    09:00 +3°C° 0.5 mm 4 mps 722 mmHg 93%
    10:00 +1°C° 0.5 mm 4 mps 722 mmHg 91%
    11:00 0°C° 0.5 mm 5 mps 722 mmHg 90%
    12:00 -1°C° 0 mm 5 mps 722 mmHg 89%
    13:00 -2°C° 0 mm 4 mps 722 mmHg 88%
    14:00 -3°C° 0 mm 4 mps 722 mmHg 87%
    15:00 -3°C° 0.1 mm 4 mps 722 mmHg 87%
    16:00 -3°C° 0.1 mm 4 mps 722 mmHg 88%
    17:00 -3°C° 0.1 mm 4 mps 722 mmHg 88%
    18:00 -2°C° 0.1 mm 3 mps 723 mmHg 89%
    19:00 -4°C° 0.1 mm 3 mps 723 mmHg 89%
    20:00 -4°C° 0.1 mm 3 mps 723 mmHg 89%
    21:00 -4°C° 0.1 mm 3 mps 723 mmHg 90%
    22:00 -4°C° 0.1 mm 3 mps 723 mmHg 90%
    23:00 -4°C° 0.1 mm 3 mps 723 mmHg 90%
    Mostrar más